Weather in Higüey

Dominican Republic     18°36′50″N   68°42′51″W
temp.,
°C
wind,
m/s
gust,
m/s
humid.,
%
clouds,
%
prec.,
mm/h
press.,
hPa
HPBL,
m
24 january, sun
sun2423:00+21ne369319 0.0 1017145
02:00+21ne369523 0.0 1016143
05:00+20ne369550 0.0 1015144
08:00+21ne379254 0.0 1017202
11:00+27ene56735 0.1 10171025
14:00+27ne566821 0.4 10151200
17:00+25ne677853 0.3 1015803
20:00+21ne499166 0.3 1016248
25 january, mon
mon2523:00+21ne4108877 0.0 1017294
02:00+20ne499165 0.0 1015244
05:00+20ne379375 0.0 1015185
08:00+21ne499050 0.1 1017315
11:00+25ene676933 0.0 10181145
14:00+26ne666633 0.1 10161172
17:00+24ne577427 0.0 1015782
20:00+20ne499049 0.0 1016208
26 january, tue
tue2623:00+20ne499228 0.0 1017226
02:00+20ne489315 0.0 1016196
05:00+20ene37930 0.0 1015167
08:00+21ne499316 0.2 1018404
11:00+25ene7107993 0.9 10181019
14:00+27ene786881 0.9 10171187
17:00+25ne687913 0.1 1016878
20:00+21ne498918 0.1 1017325
27 january, wed
wed2723:00+21ne4109324 0.0 1018335
02:00+20ne4109231 0.0 1017278
05:00+20ne4108927 0.0 1017270
08:00+21ne498564 0.0 1018355
11:00+25ne6770100 0.0 10191083
14:00+26ene676579 0.0 10171205
17:00+24ene577343 0.0 1015992
20:00+20ne369229 0.0 1017122
28 january, thu
thu2823:00+20ne389518 0.0 1017175
02:00+20ne37959 0.0 1016185
05:00+21ne49945 0.0 1015229
08:00+22ene498919 0.1 1016410
11:00+26ene577216 0.1 1017957
14:00+27ene556822 0.3 10151078
17:00+26e457233 0.1 1013821
20:00+21ese239151 0.1 101443